Weather in Razdolnoye

Russia / Amur Oblast     50°01′20″N   127°50′03″E
temp.,
°C
wind,
m/s
gust,
m/s
humid.,
%
clouds,
%
prec.,
mm/h
press.,
hPa
HPBL,
m
6 march, sat
sat600:00−22wnw48852 0.0 1036134
03:00−22wnw47851 0.0 103689
06:00−23w34820 0.0 103743
09:00−20wsw23800 0.0 103696
12:00−14ssw23690 0.0 1034414
15:00−11sw25650 0.0 1032840
18:00−15wsw59770 0.0 1030157
21:00−18sw34885 0.0 103047
7 march, sun
sun700:00−19s348769 0.0 102841
03:00−17sse359084 0.0 1027112
06:00−14ssw4896100 1.1 1024321
09:00−14ssw4694100 1.6 1024327
12:00−11sw2284100 0.1 1024500
15:00−9ne1281100 0.1 1024535
18:00−14e119194 0.0 102520
21:00−16w229253 0.0 102720
8 march, mon
mon800:00−17sw12950 0.0 102820
03:00−17s23910 0.0 102721
06:00−16s448729 0.0 102658
09:00−12s598633 0.0 1025276
12:00−4ssw697634 0.0 1021497
15:00−1ssw6117420 0.0 1017744
18:00−3ssw61181100 0.0 1014286
21:00−4ssw5985100 0.0 1013233
9 march, tue
tue900:00−5s3687100 0.0 1010109
03:00−5ssw3687100 0.0 1008129
06:00−9wsw349346 0.0 100767
09:00−5nnw6109572 0.4 1008546
12:00−5n101488100 1.0 1011802
15:00−5nnw81481100 1.0 1015920
18:00−6nnw5148315 0.0 1019577
21:00−7nw513849 0.0 1023303
10 march, wed
wed1000:00−9nw410840 0.0 1026190
03:00−12wnw34840 0.0 102764
06:00−13w23820 0.0 102820
09:00−9ssw348435 0.0 1027128
12:00−4ssw4876100 0.0 1025635
15:00−1ssw5973100 0.0 10221012
18:00−3ssw51180100 0.0 1021420
21:00−5ssw3785100 0.0 1021172